Location: Tuttlingen
(47.9853°N, 8.8165°E)
Time: 12:19:51
(UTC+02:00)

ISS - Visible Passes

Search period start: 13 May 2021 00:00
Search period end: 23 May 2021 00:00
Orbit: 417 x 422 km, 51.6° (Epoch: 13 May)

Date Brightness Start Highest point End Pass type
(mag) Time Alt. Az. Time Alt. Az. Time Alt. Az.
13 May -2.6 02:05:02 39° NW 02:05:35 43° N 02:08:50 10° ENE visible
13 May -3.2 03:39:23 10° WNW 03:42:44 59° NNE 03:46:05 10° E visible
14 May -2.6 01:18:39 42° NNE 01:18:39 42° NNE 01:21:21 10° ENE visible
14 May -2.8 02:51:56 10° WNW 02:55:14 49° N 02:58:32 10° E visible
14 May -3.7 04:28:48 10° WNW 04:32:06 55° SSW 04:35:25 10° SE visible
14 May -3.4 22:50:36 10° SW 22:53:47 40° SE 22:55:35 21° E visible
15 May -3.1 00:27:13 10° W 00:30:33 56° NNW 00:33:53 10° ENE visible
15 May -2.6 02:04:27 10° WNW 02:07:42 44° N 02:10:58 10° E visible
15 May -3.9 03:41:19 10° WNW 03:44:43 80° SSW 03:48:05 10° ESE visible
15 May -2.8 22:03:34 10° SSW 22:06:28 27° SE 22:09:21 10° E visible
15 May -3.6 23:39:41 10° WSW 23:43:04 71° NNW 23:46:27 10° ENE visible
16 May -2.5 01:16:56 10° WNW 01:20:10 42° N 01:23:25 10° ENE visible
16 May -3.7 02:53:53 10° WNW 02:57:15 76° NNE 03:00:39 10° ESE visible
16 May -2.7 04:31:01 10° W 04:33:50 25° SW 04:36:38 10° SSE visible
16 May -3.9 22:52:14 10° WSW 22:55:36 86° SSE 22:58:59 10° ENE visible
17 May -2.6 00:29:23 10° WNW 00:32:37 43° N 00:35:53 10° ENE visible
17 May -3.2 02:06:26 10° WNW 02:09:47 59° NNE 02:13:08 10° E visible
17 May -3.3 03:43:22 10° WNW 03:46:31 37° SW 03:49:39 10° SE visible
17 May -3.8 22:04:52 10° SW 22:08:11 60° SSE 22:11:31 10° ENE visible
17 May -2.7 23:41:49 10° W 23:45:05 48° N 23:48:23 10° ENE visible
18 May -2.9 01:18:58 10° WNW 01:22:16 49° N 01:22:56 41° NE visible
18 May -3.1 22:54:15 10° W 22:57:35 56° NNW 23:00:55 10° ENE visible
19 May -2.6 00:31:29 10° WNW 00:34:44 44° N 00:36:31 22° ENE visible
19 May -1.6 02:08:21 10° WNW 02:09:26 19° WNW 02:09:26 19° WNW visible
19 May -3.5 22:06:44 10° WSW 22:10:05 71° NNW 22:13:28 10° ENE visible
19 May -2.5 23:43:57 10° WNW 23:47:11 42° N 23:50:21 11° ENE visible
20 May -2.8 01:20:54 10° WNW 01:23:16 42° WNW 01:23:16 42° WNW visible
20 May -2.5 22:56:24 10° WNW 22:59:39 43° N 23:02:54 10° ENE visible
21 May -3.3 00:33:27 10° WNW 00:36:47 59° NNE 00:37:12 54° NE visible
21 May -2.7 22:08:50 10° W 22:12:06 47° N 22:15:23 10° ENE visible
21 May -2.9 23:45:59 10° WNW 23:49:17 49° N 23:51:10 22° ENE visible
22 May -1.7 01:22:51 10° WNW 01:24:06 21° WNW 01:24:06 21° WNW visible
22 May -2.7 22:58:29 10° WNW 23:01:45 44° N 23:05:00 10° E visible
